Time,TemperatureF,DewpointF,PressureIn,WindDirection,WindDirectionDegrees,WindSpeedMPH,WindSpeedGustMPH,Humidity,HourlyPrecipIn,Conditions,Clouds,dailyrainin,SoftwareType,DateUTC
2013-05-10 00:01:00,67.3,60.3,29.89,SSW,194,3.0,5.0,78,0.00,,,0.00,WUHU216DAVISVP2,2013-05-10 05:01:00,
2013-05-10 00:06:00,67.3,60.3,29.89,SSW,207,3.0,5.0,78,0.00,,,0.00,WUHU216DAVISVP2,2013-05-10 05:06:00,
2013-05-10 00:11:00,67.1,60.5,29.88,SSW,204,4.0,5.0,79,0.00,,,0.00,WUHU216DAVISVP2,2013-05-10 05:11:00,
2013-05-10 00:16:00,66.9,60.6,29.89,SSW,199,3.0,5.0,80,0.00,,,0.00,WUHU216DAVISVP2,2013-05-10 05:16:00,
2013-05-10 00:21:00,66.7,60.4,29.89,SW,216,3.0,5.0,80,0.00,,,0.00,WUHU216DAVISVP2,2013-05-10 05:21:00,
2013-05-10 00:26:00,66.9,60.5,29.89,SW,231,6.0,6.0,80,0.00,,,0.00,WUHU216DAVISVP2,2013-05-10 05:26:00,
2013-05-10 00:31:00,66.8,60.5,29.89,South,180,3.0,7.0,80,0.00,,,0.00,WUHU216DAVISVP2,2013-05-10 05:31:00,
2013-05-10 00:36:00,66.7,60.7,29.89,SW,226,3.0,7.0,81,0.00,,,0.00,WUHU216DAVISVP2,2013-05-10 05:36:00,
2013-05-10 00:41:00,66.7,60.7,29.90,SW,215,3.0,6.0,81,0.00,,,0.00,WUHU216DAVISVP2,2013-05-10 05:41:00,
2013-05-10 00:46:00,66.4,60.7,29.90,WSW,240,3.0,6.0,82,0.00,,,0.00,WUHU216DAVISVP2,2013-05-10 05:46:00,
2013-05-10 00:51:00,66.3,60.6,29.90,SW,226,3.0,4.0,82,0.00,,,0.00,WUHU216DAVISVP2,2013-05-10 05:51:00,
2013-05-10 00:56:00,66.2,60.5,29.90,SW,235,4.0,4.0,82,0.00,,,0.00,WUHU216DAVISVP2,2013-05-10 05:56:00,
2013-05-10 01:01:00,66.2,60.5,29.89,SSW,193,2.0,5.0,82,0.00,,,0.00,WUHU216DAVISVP2,2013-05-10 06:01:00,
2013-05-10 01:06:00,66.0,60.7,29.89,WSW,243,4.0,5.0,83,0.00,,,0.00,WUHU216DAVISVP2,2013-05-10 06:06:00,
2013-05-10 01:11:00,65.8,60.5,29.89,South,191,2.0,5.0,83,0.00,,,0.00,WUHU216DAVISVP2,2013-05-10 06:11:00,
2013-05-10 01:16:00,65.8,60.5,29.88,South,183,2.0,5.0,83,0.00,,,0.00,WUHU216DAVISVP2,2013-05-10 06:16:00,
2013-05-10 01:21:00,66.0,60.7,29.87,SSW,205,4.0,5.0,83,0.00,,,0.00,WUHU216DAVISVP2,2013-05-10 06:21:00,
2013-05-10 01:26:00,66.0,60.7,29.87,South,188,4.0,5.0,83,0.00,,,0.00,WUHU216DAVISVP2,2013-05-10 06:26:00,
2013-05-10 01:31:00,65.8,60.5,29.87,SSE,156,2.0,5.0,83,0.00,,,0.00,WUHU216DAVISVP2,2013-05-10 06:31:00,
2013-05-10 01:36:00,65.7,60.8,29.87,South,188,2.0,5.0,84,0.00,,,0.00,WUHU216DAVISVP2,2013-05-10 06:36:00,
2013-05-10 01:41:00,65.6,60.7,29.87,SSW,198,3.0,5.0,84,0.00,,,0.00,WUHU216DAVISVP2,2013-05-10 06:41:00,
2013-05-10 01:46:00,65.5,60.6,29.87,SSW,213,3.0,6.0,84,0.00,,,0.00,WUHU216DAVISVP2,2013-05-10 06:46:00,
2013-05-10 01:51:00,65.3,60.7,29.88,SSW,210,5.0,6.0,85,0.00,,,0.00,WUHU216DAVISVP2,2013-05-10 06:51:00,
2013-05-10 01:56:00,65.4,60.8,29.88,SSW,212,2.0,5.0,85,0.00,,,0.00,WUHU216DAVISVP2,2013-05-10 06:56:00,
2013-05-10 02:01:00,65.5,60.9,29.88,SW,224,7.0,7.0,85,0.00,,,0.00,WUHU216DAVISVP2,2013-05-10 07:01:00,
2013-05-10 02:06:00,65.5,60.9,29.89,SW,226,0.0,7.0,85,0.00,,,0.00,WUHU216DAVISVP2,2013-05-10 07:06:00,
2013-05-10 02:11:00,65.7,61.1,29.89,West,279,2.0,8.0,85,0.00,,,0.00,WUHU216DAVISVP2,2013-05-10 07:11:00,
2013-05-10 02:16:00,66.0,60.4,29.89,WNW,293,6.0,10.0,82,0.00,,,0.00,WUHU216DAVISVP2,2013-05-10 07:16:00,
2013-05-10 02:21:00,65.8,59.9,29.88,West,280,15.0,15.0,81,0.00,,,0.00,WUHU216DAVISVP2,2013-05-10 07:21:00,
2013-05-10 02:26:00,65.3,59.4,29.88,West,260,4.0,15.0,81,0.00,,,0.00,WUHU216DAVISVP2,2013-05-10 07:26:00,
2013-05-10 02:31:00,64.9,59.3,29.88,West,273,9.0,10.0,82,0.00,,,0.00,WUHU216DAVISVP2,2013-05-10 07:31:00,
2013-05-10 02:36:00,64.3,59.4,29.87,West,276,8.0,11.0,84,0.00,,,0.00,WUHU216DAVISVP2,2013-05-10 07:36:00,
2013-05-10 02:41:00,63.8,59.2,29.86,WNW,300,3.0,11.0,85,0.00,,,0.00,WUHU216DAVISVP2,2013-05-10 07:41:00,
2013-05-10 02:46:00,63.4,59.1,29.86,NNW,339,4.0,6.0,86,0.00,,,0.00,WUHU216DAVISVP2,2013-05-10 07:46:00,
2013-05-10 02:51:00,63.2,58.9,29.85,NW,326,4.0,7.0,86,0.00,,,0.00,WUHU216DAVISVP2,2013-05-10 07:51:00,
2013-05-10 02:56:00,63.1,59.2,29.85,WNW,298,2.0,7.0,87,0.00,,,0.00,WUHU216DAVISVP2,2013-05-10 07:56:00,
2013-05-10 03:01:00,63.0,59.1,29.85,SW,233,1.0,7.0,87,0.00,,,0.00,WUHU216DAVISVP2,2013-05-10 08:01:00,
2013-05-10 03:06:00,62.8,58.9,29.85,WNW,289,1.0,4.0,87,0.00,,,0.00,WUHU216DAVISVP2,2013-05-10 08:06:00,
2013-05-10 03:11:00,62.7,58.8,29.85,West,270,0.0,5.0,87,0.00,,,0.00,WUHU216DAVISVP2,2013-05-10 08:11:00,
2013-05-10 03:16:00,62.6,58.7,29.84,West,274,1.0,5.0,87,0.00,,,0.00,WUHU216DAVISVP2,2013-05-10 08:16:00,
2013-05-10 03:21:00,62.5,58.9,29.84,West,278,1.0,3.0,88,0.00,,,0.00,WUHU216DAVISVP2,2013-05-10 08:21:00,
2013-05-10 03:26:00,62.4,58.8,29.84,SW,221,2.0,2.0,88,0.00,,,0.00,WUHU216DAVISVP2,2013-05-10 08:26:00,
2013-05-10 03:31:00,62.2,58.9,29.84,SSW,209,3.0,3.0,89,0.00,,,0.00,WUHU216DAVISVP2,2013-05-10 08:31:00,
2013-05-10 03:36:00,62.0,58.7,29.84,SSW,202,2.0,5.0,89,0.00,,,0.00,WUHU216DAVISVP2,2013-05-10 08:36:00,
2013-05-10 03:41:00,61.8,58.8,29.84,SSW,204,2.0,5.0,90,0.00,,,0.00,WUHU216DAVISVP2,2013-05-10 08:41:00,
2013-05-10 03:46:00,61.8,58.8,29.84,SSW,194,3.0,4.0,90,0.00,,,0.00,WUHU216DAVISVP2,2013-05-10 08:46:00,
2013-05-10 03:51:00,62.0,58.7,29.84,SSE,165,4.0,5.0,89,0.00,,,0.00,WUHU216DAVISVP2,2013-05-10 08:51:00,
2013-05-10 03:56:00,62.1,58.8,29.84,WSW,240,3.0,5.0,89,0.00,,,0.00,WUHU216DAVISVP2,2013-05-10 08:56:00,
2013-05-10 04:01:00,62.1,58.8,29.83,SSW,206,1.0,5.0,89,0.00,,,0.00,WUHU216DAVISVP2,2013-05-10 09:01:00,
2013-05-10 04:06:00,62.1,58.8,29.83,South,178,2.0,4.0,89,0.00,,,0.00,WUHU216DAVISVP2,2013-05-10 09:06:00,
2013-05-10 04:11:00,62.0,58.7,29.83,SSW,203,0.0,4.0,89,0.00,,,0.00,WUHU216DAVISVP2,2013-05-10 09:11:00,
2013-05-10 04:16:00,61.9,58.6,29.83,SSE,156,0.0,3.0,89,0.00,,,0.00,WUHU216DAVISVP2,2013-05-10 09:16:00,
2013-05-10 04:21:00,61.9,58.6,29.83,SSE,168,3.0,3.0,89,0.00,,,0.00,WUHU216DAVISVP2,2013-05-10 09:21:00,
2013-05-10 04:26:00,62.0,58.4,29.83,SSE,158,0.0,6.0,88,0.00,,,0.00,WUHU216DAVISVP2,2013-05-10 09:26:00,
2013-05-10 04:31:00,62.2,58.6,29.83,SSW,207,6.0,7.0,88,0.00,,,0.00,WUHU216DAVISVP2,2013-05-10 09:31:00,
2013-05-10 04:36:00,62.4,58.5,29.83,SSE,162,3.0,7.0,87,0.00,,,0.00,WUHU216DAVISVP2,2013-05-10 09:36:00,
2013-05-10 04:41:00,62.5,58.6,29.83,SSW,197,4.0,6.0,87,0.00,,,0.00,WUHU216DAVISVP2,2013-05-10 09:41:00,
2013-05-10 04:46:00,62.4,58.8,29.84,SW,215,3.0,6.0,88,0.00,,,0.00,WUHU216DAVISVP2,2013-05-10 09:46:00,
2013-05-10 04:51:00,62.5,58.6,29.84,SSW,200,3.0,7.0,87,0.00,,,0.00,WUHU216DAVISVP2,2013-05-10 09:51:00,
2013-05-10 04:56:00,62.5,58.6,29.85,SSW,207,2.0,7.0,87,0.00,,,0.00,WUHU216DAVISVP2,2013-05-10 09:56:00,
2013-05-10 05:01:00,62.4,58.5,29.85,SSW,195,0.0,5.0,87,0.00,,,0.00,WUHU216DAVISVP2,2013-05-10 10:01:00,
2013-05-10 05:06:00,62.3,58.7,29.85,WNW,302,2.0,3.0,88,0.00,,,0.00,WUHU216DAVISVP2,2013-05-10 10:06:00,
2013-05-10 05:11:00,62.3,58.4,29.85,WNW,287,2.0,2.0,87,0.00,,,0.00,WUHU216DAVISVP2,2013-05-10 10:11:00,
2013-05-10 05:16:00,62.3,58.4,29.86,NW,322,2.0,3.0,87,0.00,,,0.00,WUHU216DAVISVP2,2013-05-10 10:16:00,
2013-05-10 05:21:00,62.1,58.5,29.86,NW,305,0.0,3.0,88,0.00,,,0.00,WUHU216DAVISVP2,2013-05-10 10:21:00,
2013-05-10 05:26:00,62.0,58.7,29.86,NW,311,2.0,4.0,89,0.00,,,0.00,WUHU216DAVISVP2,2013-05-10 10:26:00,
2013-05-10 05:31:00,61.9,58.6,29.86,NW,307,1.0,4.0,89,0.00,,,0.00,WUHU216DAVISVP2,2013-05-10 10:31:00,
2013-05-10 05:36:00,61.9,58.6,29.86,WNW,287,2.0,4.0,89,0.00,,,0.00,WUHU216DAVISVP2,2013-05-10 10:36:00,
2013-05-10 05:41:00,61.9,58.6,29.86,WNW,282,1.0,4.0,89,0.00,,,0.00,WUHU216DAVISVP2,2013-05-10 10:41:00,
2013-05-10 05:46:00,61.9,58.6,29.86,NW,304,2.0,3.0,89,0.00,,,0.00,WUHU216DAVISVP2,2013-05-10 10:46:00,
2013-05-10 05:51:00,61.9,58.6,29.86,WSW,243,0.0,4.0,89,0.00,,,0.00,WUHU216DAVISVP2,2013-05-10 10:51:00,
2013-05-10 05:56:00,61.9,58.9,29.86,West,259,0.0,4.0,90,0.00,,,0.00,WUHU216DAVISVP2,2013-05-10 10:56:00,
2013-05-10 06:01:00,61.8,58.8,29.86,WNW,286,2.0,5.0,90,0.00,,,0.00,WUHU216DAVISVP2,2013-05-10 11:01:00,
2013-05-10 06:06:00,61.9,58.9,29.86,WNW,292,4.0,5.0,90,0.00,,,0.00,WUHU216DAVISVP2,2013-05-10 11:06:00,
2013-05-10 06:11:00,62.2,58.9,29.85,NW,307,2.0,8.0,89,0.00,,,0.00,WUHU216DAVISVP2,2013-05-10 11:11:00,
2013-05-10 06:16:00,62.4,59.1,29.86,West,281,1.0,8.0,89,0.00,,,0.00,WUHU216DAVISVP2,2013-05-10 11:16:00,
2013-05-10 06:21:00,62.3,59.0,29.86,SSW,206,4.0,5.0,89,0.00,,,0.00,WUHU216DAVISVP2,2013-05-10 11:21:00,
2013-05-10 06:26:00,62.3,58.7,29.86,WNW,290,2.0,5.0,88,0.00,,,0.00,WUHU216DAVISVP2,2013-05-10 11:26:00,
2013-05-10 06:31:00,62.3,59.0,29.86,West,281,0.0,5.0,89,0.00,,,0.00,WUHU216DAVISVP2,2013-05-10 11:31:00,
2013-05-10 06:36:00,62.3,59.0,29.86,WNW,292,0.0,3.0,89,0.00,,,0.00,WUHU216DAVISVP2,2013-05-10 11:36:00,
2013-05-10 06:41:00,62.4,58.8,29.86,West,271,1.0,3.0,88,0.00,,,0.00,WUHU216DAVISVP2,2013-05-10 11:41:00,
2013-05-10 06:46:00,62.5,59.2,29.86,West,281,3.0,3.0,89,0.00,,,0.00,WUHU216DAVISVP2,2013-05-10 11:46:00,
2013-05-10 06:51:00,62.5,59.2,29.86,NW,311,1.0,4.0,89,0.00,,,0.00,WUHU216DAVISVP2,2013-05-10 11:51:00,
2013-05-10 06:56:00,62.4,59.1,29.86,South,188,0.0,4.0,89,0.00,,,0.00,WUHU216DAVISVP2,2013-05-10 11:56:00,
2013-05-10 07:01:00,62.6,59.0,29.87,WSW,257,0.0,6.0,88,0.01,,,0.01,WUHU216DAVISVP2,2013-05-10 12:01:00,
2013-05-10 07:06:00,62.6,59.0,29.86,NW,307,0.0,6.0,88,0.01,,,0.01,WUHU216DAVISVP2,2013-05-10 12:06:00,
2013-05-10 07:11:00,62.5,59.2,29.86,WNW,287,0.0,4.0,89,0.03,,,0.03,WUHU216DAVISVP2,2013-05-10 12:11:00,
2013-05-10 07:16:00,62.3,59.3,29.86,WNW,287,0.0,3.0,90,0.04,,,0.04,WUHU216DAVISVP2,2013-05-10 12:16:00,
2013-05-10 07:21:00,62.1,59.1,29.87,WSW,250,0.0,0.0,90,0.05,,,0.05,WUHU216DAVISVP2,2013-05-10 12:21:00,
2013-05-10 07:26:00,62.0,59.0,29.87,South,178,0.0,0.0,90,0.06,,,0.06,WUHU216DAVISVP2,2013-05-10 12:26:00,
2013-05-10 07:31:00,61.9,59.2,29.87,NW,305,1.0,1.0,91,0.06,,,0.06,WUHU216DAVISVP2,2013-05-10 12:31:00,
2013-05-10 07:36:00,61.9,59.2,29.87,WNW,297,0.0,1.0,91,0.06,,,0.06,WUHU216DAVISVP2,2013-05-10 12:36:00,
2013-05-10 07:41:00,61.8,59.5,29.87,WNW,297,0.0,1.0,92,0.06,,,0.06,WUHU216DAVISVP2,2013-05-10 12:41:00,
2013-05-10 07:46:00,62.0,59.6,29.87,WNW,297,0.0,0.0,92,0.06,,,0.06,WUHU216DAVISVP2,2013-05-10 12:46:00,
2013-05-10 07:51:00,62.0,59.6,29.86,WNW,297,0.0,0.0,92,0.06,,,0.06,WUHU216DAVISVP2,2013-05-10 12:51:00,
2013-05-10 07:56:00,62.1,59.7,29.86,WNW,297,0.0,0.0,92,0.06,,,0.06,WUHU216DAVISVP2,2013-05-10 12:56:00,
2013-05-10 08:01:00,62.2,60.1,29.86,WNW,297,0.0,0.0,93,0.06,,,0.06,WUHU216DAVISVP2,2013-05-10 13:01:00,
2013-05-10 08:06:00,62.2,60.2,29.86,WNW,297,0.0,0.0,93,0.05,,,0.06,WUHU216DAVISVP2,2013-05-10 13:06:00,
2013-05-10 08:11:00,62.4,60.3,29.87,WNW,297,0.0,0.0,93,0.05,,,0.06,WUHU216DAVISVP2,2013-05-10 13:11:00,
2013-05-10 08:16:00,62.6,60.2,29.87,WNW,297,0.0,0.0,92,0.04,,,0.06,WUHU216DAVISVP2,2013-05-10 13:16:00,
2013-05-10 08:21:00,62.7,60.3,29.87,WNW,297,0.0,0.0,92,0.03,,,0.06,WUHU216DAVISVP2,2013-05-10 13:21:00,
2013-05-10 08:26:00,62.8,60.4,29.87,SSW,213,0.0,1.0,92,0.02,,,0.06,WUHU216DAVISVP2,2013-05-10 13:26:00,
2013-05-10 08:31:00,63.0,60.6,29.87,WSW,244,1.0,1.0,92,0.00,,,0.06,WUHU216DAVISVP2,2013-05-10 13:31:00,
2013-05-10 08:36:00,63.3,60.6,29.87,WSW,242,0.0,1.0,91,0.00,,,0.06,WUHU216DAVISVP2,2013-05-10 13:36:00,
2013-05-10 08:41:00,63.5,60.5,29.87,WSW,253,0.0,1.0,90,0.00,,,0.06,WUHU216DAVISVP2,2013-05-10 13:41:00,
2013-05-10 08:46:00,63.7,60.7,29.87,WSW,253,0.0,1.0,90,0.00,,,0.06,WUHU216DAVISVP2,2013-05-10 13:46:00,
2013-05-10 08:51:00,63.9,60.9,29.87,West,278,1.0,1.0,90,0.00,,,0.06,WUHU216DAVISVP2,2013-05-10 13:51:00,
2013-05-10 08:56:00,64.2,61.2,29.87,WNW,282,0.0,1.0,90,0.00,,,0.06,WUHU216DAVISVP2,2013-05-10 13:56:00,
2013-05-10 09:01:00,64.2,61.2,29.87,WNW,283,2.0,2.0,90,0.00,,,0.06,WUHU216DAVISVP2,2013-05-10 14:01:00,
2013-05-10 09:06:00,64.4,61.4,29.87,NNW,327,1.0,2.0,90,0.00,,,0.06,WUHU216DAVISVP2,2013-05-10 14:06:00,
2013-05-10 09:11:00,64.6,61.6,29.87,NNW,331,2.0,2.0,90,0.00,,,0.06,WUHU216DAVISVP2,2013-05-10 14:11:00,
2013-05-10 09:16:00,65.0,62.0,29.87,WSW,238,1.0,3.0,90,0.00,,,0.06,WUHU216DAVISVP2,2013-05-10 14:16:00,
2013-05-10 09:21:00,65.6,61.9,29.87,NNW,339,4.0,4.0,88,0.00,,,0.06,WUHU216DAVISVP2,2013-05-10 14:21:00,
2013-05-10 09:26:00,66.4,61.8,29.87,WNW,302,4.0,6.0,85,0.00,,,0.06,WUHU216DAVISVP2,2013-05-10 14:26:00,
2013-05-10 09:31:00,66.8,62.1,29.87,West,269,4.0,6.0,85,0.00,,,0.06,WUHU216DAVISVP2,2013-05-10 14:31:00,
2013-05-10 09:36:00,67.0,61.7,29.86,WNW,285,4.0,5.0,83,0.00,,,0.06,WUHU216DAVISVP2,2013-05-10 14:36:00,
2013-05-10 09:41:00,67.1,61.5,29.86,NW,304,2.0,6.0,82,0.00,,,0.06,WUHU216DAVISVP2,2013-05-10 14:41:00,
2013-05-10 09:46:00,67.1,61.8,29.87,WNW,288,4.0,8.0,83,0.00,,,0.06,WUHU216DAVISVP2,2013-05-10 14:46:00,
2013-05-10 09:51:00,66.8,61.5,29.87,West,260,2.0,8.0,83,0.00,,,0.06,WUHU216DAVISVP2,2013-05-10 14:51:00,
2013-05-10 09:56:00,66.5,61.2,29.86,NW,315,4.0,6.0,83,0.00,,,0.06,WUHU216DAVISVP2,2013-05-10 14:56:00,
2013-05-10 10:01:00,66.5,61.2,29.87,West,273,3.0,6.0,83,0.00,,,0.06,WUHU216DAVISVP2,2013-05-10 15:01:00,
2013-05-10 10:06:00,66.5,61.2,29.87,NW,313,2.0,6.0,83,0.00,,,0.06,WUHU216DAVISVP2,2013-05-10 15:06:00,
2013-05-10 10:11:00,66.6,62.0,29.87,WNW,283,5.0,7.0,85,0.00,,,0.06,WUHU216DAVISVP2,2013-05-10 15:11:00,
2013-05-10 10:16:00,66.5,61.2,29.87,West,278,2.0,7.0,83,0.00,,,0.06,WUHU216DAVISVP2,2013-05-10 15:16:00,
2013-05-10 10:21:00,66.7,60.7,29.87,West,271,3.0,8.0,81,0.00,,,0.06,WUHU216DAVISVP2,2013-05-10 15:21:00,
2013-05-10 10:26:00,67.2,61.6,29.87,NNW,327,1.0,8.0,82,0.00,,,0.06,WUHU216DAVISVP2,2013-05-10 15:26:00,
2013-05-10 10:31:00,67.5,61.5,29.87,WNW,290,3.0,5.0,81,0.00,,,0.06,WUHU216DAVISVP2,2013-05-10 15:31:00,
2013-05-10 10:36:00,67.7,61.4,29.87,NW,309,3.0,6.0,80,0.00,,,0.06,WUHU216DAVISVP2,2013-05-10 15:36:00,
2013-05-10 10:41:00,68.0,62.0,29.88,NW,323,3.0,6.0,81,0.00,,,0.06,WUHU216DAVISVP2,2013-05-10 15:41:00,
2013-05-10 10:46:00,67.9,61.9,29.88,NW,307,3.0,5.0,81,0.00,,,0.06,WUHU216DAVISVP2,2013-05-10 15:46:00,
2013-05-10 10:51:00,67.7,61.7,29.88,WNW,300,1.0,4.0,81,0.00,,,0.06,WUHU216DAVISVP2,2013-05-10 15:51:00,
2013-05-10 10:56:00,67.8,61.8,29.89,WNW,290,2.0,5.0,81,0.00,,,0.06,WUHU216DAVISVP2,2013-05-10 15:56:00,
2013-05-10 11:01:00,67.8,61.8,29.89,WNW,295,3.0,5.0,81,0.00,,,0.06,WUHU216DAVISVP2,2013-05-10 16:01:00,
2013-05-10 11:06:00,67.7,61.7,29.89,NNW,338,3.0,5.0,81,0.00,,,0.06,WUHU216DAVISVP2,2013-05-10 16:06:00,
2013-05-10 11:11:00,67.7,62.1,29.89,NW,319,3.0,4.0,82,0.00,,,0.06,WUHU216DAVISVP2,2013-05-10 16:11:00,
2013-05-10 11:16:00,67.7,62.1,29.89,West,278,2.0,4.0,82,0.00,,,0.06,WUHU216DAVISVP2,2013-05-10 16:16:00,
2013-05-10 11:21:00,67.8,62.2,29.89,West,268,3.0,6.0,82,0.00,,,0.06,WUHU216DAVISVP2,2013-05-10 16:21:00,
2013-05-10 11:26:00,67.6,62.3,29.89,West,270,0.0,6.0,83,0.00,,,0.06,WUHU216DAVISVP2,2013-05-10 16:26:00,
2013-05-10 11:31:00,67.6,62.0,29.88,WNW,300,2.0,4.0,82,0.00,,,0.06,WUHU216DAVISVP2,2013-05-10 16:31:00,
2013-05-10 11:36:00,68.0,62.0,29.88,NW,323,4.0,4.0,81,0.00,,,0.06,WUHU216DAVISVP2,2013-05-10 16:36:00,
2013-05-10 11:41:00,68.3,62.3,29.88,WSW,242,0.0,4.0,81,0.00,,,0.06,WUHU216DAVISVP2,2013-05-10 16:41:00,
2013-05-10 11:46:00,69.0,63.0,29.88,WNW,295,1.0,4.0,81,0.00,,,0.06,WUHU216DAVISVP2,2013-05-10 16:46:00,
2013-05-10 11:51:00,69.4,62.3,29.88,WNW,297,1.0,3.0,78,0.00,,,0.06,WUHU216DAVISVP2,2013-05-10 16:51:00,
2013-05-10 11:56:00,69.5,62.4,29.88,NW,321,0.0,3.0,78,0.00,,,0.06,WUHU216DAVISVP2,2013-05-10 16:56:00,
2013-05-10 12:01:00,69.7,62.3,29.88,SSW,210,3.0,4.0,77,0.00,,,0.06,WUHU216DAVISVP2,2013-05-10 17:01:00,
2013-05-10 12:06:00,69.8,62.7,29.88,NW,326,2.0,4.0,78,0.00,,,0.06,WUHU216DAVISVP2,2013-05-10 17:06:00,
2013-05-10 12:11:00,70.2,62.8,29.88,NW,314,4.0,6.0,77,0.00,,,0.06,WUHU216DAVISVP2,2013-05-10 17:11:00,
2013-05-10 12:16:00,70.0,62.9,29.88,NNW,342,2.0,6.0,78,0.00,,,0.06,WUHU216DAVISVP2,2013-05-10 17:16:00,
2013-05-10 12:21:00,70.1,62.7,29.87,NW,318,3.0,6.0,77,0.00,,,0.06,WUHU216DAVISVP2,2013-05-10 17:21:00,
2013-05-10 12:26:00,70.4,63.3,29.87,NNW,330,3.0,9.0,78,0.00,,,0.06,WUHU216DAVISVP2,2013-05-10 17:26:00,
2013-05-10 12:31:00,70.5,62.7,29.87,NW,322,2.0,9.0,76,0.00,,,0.06,WUHU216DAVISVP2,2013-05-10 17:31:00,
2013-05-10 12:36:00,70.7,62.2,29.87,NW,304,6.0,8.0,74,0.00,,,0.06,WUHU216DAVISVP2,2013-05-10 17:36:00,
2013-05-10 12:41:00,70.4,61.9,29.87,NNW,328,5.0,8.0,74,0.00,,,0.06,WUHU216DAVISVP2,2013-05-10 17:41:00,
2013-05-10 12:46:00,70.3,62.9,29.87,NW,326,4.0,7.0,77,0.00,,,0.06,WUHU216DAVISVP2,2013-05-10 17:46:00,
2013-05-10 12:51:00,70.2,63.1,29.86,NW,316,4.0,8.0,78,0.00,,,0.06,WUHU216DAVISVP2,2013-05-10 17:51:00,
2013-05-10 12:56:00,69.9,62.8,29.87,NW,317,7.0,8.0,78,0.00,,,0.06,WUHU216DAVISVP2,2013-05-10 17:56:00,
2013-05-10 13:01:00,69.9,62.8,29.87,NW,313,4.0,8.0,78,0.00,,,0.06,WUHU216DAVISVP2,2013-05-10 18:01:00,
2013-05-10 13:06:00,70.6,63.2,29.86,North,351,6.0,8.0,77,0.00,,,0.06,WUHU216DAVISVP2,2013-05-10 18:06:00,
2013-05-10 13:11:00,71.6,63.0,29.86,ENE,66,0.0,9.0,74,0.00,,,0.06,WUHU216DAVISVP2,2013-05-10 18:11:00,
2013-05-10 13:16:00,72.0,62.7,29.86,North,5,1.0,9.0,72,0.00,,,0.06,WUHU216DAVISVP2,2013-05-10 18:16:00,
2013-05-10 13:21:00,71.9,62.9,29.86,NNW,333,2.0,5.0,73,0.00,,,0.06,WUHU216DAVISVP2,2013-05-10 18:21:00,
2013-05-10 13:26:00,71.8,63.2,29.85,NW,307,3.0,7.0,74,0.00,,,0.06,WUHU216DAVISVP2,2013-05-10 18:26:00,
2013-05-10 13:31:00,72.3,63.7,29.85,WSW,253,0.0,7.0,74,0.00,,,0.06,WUHU216DAVISVP2,2013-05-10 18:31:00,
2013-05-10 13:36:00,72.2,63.2,29.85,SW,236,2.0,6.0,73,0.00,,,0.06,WUHU216DAVISVP2,2013-05-10 18:36:00,
2013-05-10 13:41:00,72.0,62.7,29.86,NNW,327,4.0,6.0,72,0.00,,,0.06,WUHU216DAVISVP2,2013-05-10 18:41:00,
2013-05-10 13:46:00,71.8,62.1,29.85,NNW,334,3.0,6.0,71,0.00,,,0.06,WUHU216DAVISVP2,2013-05-10 18:46:00,
2013-05-10 13:51:00,72.3,62.9,29.85,West,260,4.0,7.0,72,0.00,,,0.06,WUHU216DAVISVP2,2013-05-10 18:51:00,
2013-05-10 13:56:00,72.6,63.6,29.86,WNW,291,4.0,7.0,73,0.00,,,0.06,WUHU216DAVISVP2,2013-05-10 18:56:00,
2013-05-10 14:01:00,72.6,62.8,29.86,WNW,297,3.0,8.0,71,0.00,,,0.06,WUHU216DAVISVP2,2013-05-10 19:01:00,
2013-05-10 14:06:00,72.4,62.6,29.85,WNW,301,3.0,8.0,71,0.00,,,0.06,WUHU216DAVISVP2,2013-05-10 19:06:00,
2013-05-10 14:11:00,72.0,62.5,29.86,SSW,192,2.0,5.0,72,0.00,,,0.06,WUHU216DAVISVP2,2013-05-10 19:11:00,
2013-05-10 14:16:00,71.5,62.8,29.86,SW,229,8.0,11.0,74,0.00,,,0.06,WUHU216DAVISVP2,2013-05-10 19:16:00,
2013-05-10 14:21:00,70.6,63.0,29.86,NW,324,2.0,11.0,77,0.00,,,0.06,WUHU216DAVISVP2,2013-05-10 19:21:00,
2013-05-10 14:26:00,70.3,62.4,29.86,WSW,252,3.0,7.0,76,0.00,,,0.06,WUHU216DAVISVP2,2013-05-10 19:26:00,
2013-05-10 14:31:00,70.6,63.0,29.86,WNW,291,4.0,6.0,77,0.00,,,0.06,WUHU216DAVISVP2,2013-05-10 19:31:00,
2013-05-10 14:36:00,71.2,63.2,29.86,WNW,288,1.0,5.0,76,0.00,,,0.06,WUHU216DAVISVP2,2013-05-10 19:36:00,
2013-05-10 14:41:00,72.2,63.4,29.85,NNW,339,2.0,5.0,74,0.00,,,0.06,WUHU216DAVISVP2,2013-05-10 19:41:00,
2013-05-10 14:46:00,72.4,63.6,29.85,West,280,5.0,7.0,74,0.00,,,0.06,WUHU216DAVISVP2,2013-05-10 19:46:00,
2013-05-10 14:51:00,71.9,62.8,29.85,NNW,334,8.0,9.0,73,0.00,,,0.06,WUHU216DAVISVP2,2013-05-10 19:51:00,
2013-05-10 14:56:00,70.6,63.0,29.85,NNW,329,10.0,15.0,77,0.00,,,0.06,WUHU216DAVISVP2,2013-05-10 19:56:00,
2013-05-10 15:01:00,69.0,62.9,29.85,NW,316,10.0,15.0,81,0.00,,,0.06,WUHU216DAVISVP2,2013-05-10 20:01:00,
2013-05-10 15:06:00,68.6,62.9,29.85,NW,312,5.0,15.0,82,0.00,,,0.06,WUHU216DAVISVP2,2013-05-10 20:06:00,
2013-05-10 15:11:00,69.2,63.2,29.85,NW,323,14.0,14.0,81,0.00,,,0.06,WUHU216DAVISVP2,2013-05-10 20:11:00,
2013-05-10 15:16:00,69.4,62.7,29.86,NNW,327,11.0,16.0,79,0.00,,,0.06,WUHU216DAVISVP2,2013-05-10 20:16:00,
2013-05-10 15:21:00,69.7,62.3,29.86,NNW,327,6.0,16.0,77,0.00,,,0.06,WUHU216DAVISVP2,2013-05-10 20:21:00,
2013-05-10 15:26:00,70.3,63.2,29.86,NNW,328,10.0,15.0,78,0.00,,,0.06,WUHU216DAVISVP2,2013-05-10 20:26:00,
2013-05-10 15:31:00,70.1,62.7,29.86,NW,320,8.0,17.0,77,0.00,,,0.06,WUHU216DAVISVP2,2013-05-10 20:31:00,
2013-05-10 15:36:00,70.5,63.4,29.86,NNW,328,8.0,17.0,78,0.00,,,0.06,WUHU216DAVISVP2,2013-05-10 20:36:00,
2013-05-10 15:41:00,70.9,62.6,29.86,NW,324,7.0,15.0,75,0.00,,,0.06,WUHU216DAVISVP2,2013-05-10 20:41:00,
2013-05-10 15:46:00,70.6,62.1,29.86,WNW,291,7.0,13.0,74,0.00,,,0.06,WUHU216DAVISVP2,2013-05-10 20:46:00,
2013-05-10 15:51:00,70.1,61.9,29.86,NNW,345,11.0,14.0,75,0.00,,,0.06,WUHU216DAVISVP2,2013-05-10 20:51:00,
2013-05-10 15:56:00,69.8,62.3,29.86,NNW,327,8.0,14.0,77,0.00,,,0.06,WUHU216DAVISVP2,2013-05-10 20:56:00,
2013-05-10 16:01:00,69.7,61.4,29.86,NW,321,14.0,15.0,75,0.00,,,0.06,WUHU216DAVISVP2,2013-05-10 21:01:00,
2013-05-10 16:06:00,69.5,62.0,29.86,NW,309,11.0,15.0,77,0.00,,,0.06,WUHU216DAVISVP2,2013-05-10 21:06:00,
2013-05-10 16:11:00,69.3,61.8,29.86,NW,322,9.0,18.0,77,0.00,,,0.06,WUHU216DAVISVP2,2013-05-10 21:11:00,
2013-05-10 16:16:00,69.1,60.8,29.86,NNW,330,18.0,18.0,75,0.00,,,0.06,WUHU216DAVISVP2,2013-05-10 21:16:00,
2013-05-10 16:21:00,69.0,61.2,29.86,NNW,345,15.0,21.0,76,0.00,,,0.06,WUHU216DAVISVP2,2013-05-10 21:21:00,
2013-05-10 16:26:00,68.6,60.5,29.86,NNW,336,12.0,22.0,75,0.00,,,0.06,WUHU216DAVISVP2,2013-05-10 21:26:00,
2013-05-10 16:31:00,68.5,60.8,29.87,NNW,332,10.0,22.0,76,0.00,,,0.06,WUHU216DAVISVP2,2013-05-10 21:31:00,
2013-05-10 16:35:00,68.5,60.4,29.87,NNE,19,15.0,20.0,75,0.00,,,0.06,WUHU216DAVISVP2,2013-05-10 21:35:00,
2013-05-10 16:40:00,68.3,60.2,29.87,NNW,338,13.0,20.0,75,0.00,,,0.06,WUHU216DAVISVP2,2013-05-10 21:40:00,
2013-05-10 16:45:00,68.3,60.2,29.87,NW,322,14.0,18.0,75,0.00,,,0.06,WUHU216DAVISVP2,2013-05-10 21:45:00,
2013-05-10 16:50:00,68.8,60.3,29.87,NW,318,8.0,18.0,74,0.00,,,0.06,WUHU216DAVISVP2,2013-05-10 21:50:00,
2013-05-10 16:55:00,69.2,60.7,29.87,NW,316,8.0,14.0,74,0.00,,,0.06,WUHU216DAVISVP2,2013-05-10 21:55:00,
2013-05-10 16:58:00,69.4,60.5,29.87,NW,325,6.0,13.0,73,0.00,,,0.06,WUHU216DAVISVP2,2013-05-10 21:58:00,
2013-05-10 17:03:00,69.9,60.2,29.87,NW,316,4.0,14.0,71,0.00,,,0.06,WUHU216DAVISVP2,2013-05-10 22:03:00,
2013-05-10 17:08:00,70.0,59.5,29.88,NNW,339,6.0,15.0,69,0.00,,,0.06,WUHU216DAVISVP2,2013-05-10 22:08:00,
2013-05-10 17:13:00,69.9,58.6,29.88,NW,323,8.0,15.0,67,0.00,,,0.06,WUHU216DAVISVP2,2013-05-10 22:13:00,
2013-05-10 17:18:00,69.8,58.9,29.88,NNW,333,10.0,18.0,68,0.00,,,0.06,WUHU216DAVISVP2,2013-05-10 22:18:00,
2013-05-10 17:23:00,69.5,59.1,29.88,NNW,342,8.0,18.0,69,0.00,,,0.06,WUHU216DAVISVP2,2013-05-10 22:23:00,
2013-05-10 17:28:00,68.7,59.8,29.88,NNW,340,15.0,20.0,73,0.00,,,0.06,WUHU216DAVISVP2,2013-05-10 22:28:00,
2013-05-10 17:33:00,68.1,61.1,29.88,NNW,340,11.0,20.0,78,0.00,,,0.06,WUHU216DAVISVP2,2013-05-10 22:33:00,
2013-05-10 17:38:00,67.7,61.0,29.88,NW,316,12.0,16.0,79,0.00,,,0.06,WUHU216DAVISVP2,2013-05-10 22:38:00,
2013-05-10 17:43:00,67.4,60.7,29.88,NNW,330,12.0,17.0,79,0.00,,,0.06,WUHU216DAVISVP2,2013-05-10 22:43:00,
2013-05-10 17:48:00,66.8,60.5,29.88,North,352,13.0,19.0,80,0.00,,,0.06,WUHU216DAVISVP2,2013-05-10 22:48:00,
2013-05-10 17:53:00,66.4,60.1,29.88,NNW,348,15.0,19.0,80,0.00,,,0.06,WUHU216DAVISVP2,2013-05-10 22:53:00,
2013-05-10 17:58:00,66.4,59.8,29.88,NW,316,12.0,21.0,79,0.00,,,0.06,WUHU216DAVISVP2,2013-05-10 22:58:00,
2013-05-10 18:03:00,66.5,59.8,29.88,NNW,330,10.0,21.0,79,0.00,,,0.06,WUHU216DAVISVP2,2013-05-10 23:03:00,
2013-05-10 18:08:00,66.2,59.1,29.88,NW,314,16.0,16.0,78,0.00,,,0.06,WUHU216DAVISVP2,2013-05-10 23:08:00,
2013-05-10 18:13:00,65.8,59.5,29.88,NW,314,9.0,20.0,80,0.00,,,0.06,WUHU216DAVISVP2,2013-05-10 23:13:00,
2013-05-10 18:18:00,65.5,59.5,29.88,NNW,341,8.0,20.0,81,0.00,,,0.06,WUHU216DAVISVP2,2013-05-10 23:18:00,
2013-05-10 18:23:00,64.8,58.8,29.88,NW,326,13.0,20.0,81,0.00,,,0.06,WUHU216DAVISVP2,2013-05-10 23:23:00,
2013-05-10 18:28:00,64.1,58.8,29.88,NNW,333,17.0,20.0,83,0.00,,,0.06,WUHU216DAVISVP2,2013-05-10 23:28:00,
2013-05-10 18:33:00,63.9,58.7,29.88,NW,321,14.0,20.0,83,0.00,,,0.06,WUHU216DAVISVP2,2013-05-10 23:33:00,
2013-05-10 18:38:00,64.1,58.5,29.89,WNW,291,11.0,19.0,82,0.00,,,0.06,WUHU216DAVISVP2,2013-05-10 23:38:00,
2013-05-10 18:43:00,64.0,58.4,29.90,NNW,340,9.0,18.0,82,0.00,,,0.06,WUHU216DAVISVP2,2013-05-10 23:43:00,
2013-05-10 18:48:00,63.7,58.4,29.90,North,360,10.0,19.0,83,0.00,,,0.06,WUHU216DAVISVP2,2013-05-10 23:48:00,
2013-05-10 18:53:00,63.2,58.0,29.91,NNW,329,12.0,19.0,83,0.00,,,0.06,WUHU216DAVISVP2,2013-05-10 23:53:00,
2013-05-10 18:58:00,62.9,58.0,29.91,NW,319,8.0,17.0,84,0.00,,,0.06,WUHU216DAVISVP2,2013-05-10 23:58:00,
2013-05-10 19:03:00,62.8,57.6,29.91,NW,323,5.0,13.0,83,0.00,,,0.06,WUHU216DAVISVP2,2013-05-11 00:03:00,
2013-05-10 19:08:00,62.6,57.1,29.91,NW,326,10.0,16.0,82,0.00,,,0.06,WUHU216DAVISVP2,2013-05-11 00:08:00,
2013-05-10 19:13:00,62.4,56.9,29.91,NW,326,10.0,16.0,82,0.00,,,0.06,WUHU216DAVISVP2,2013-05-11 00:13:00,
2013-05-10 19:18:00,62.1,57.2,29.91,NE,34,4.0,15.0,84,0.00,,,0.06,WUHU216DAVISVP2,2013-05-11 00:18:00,
2013-05-10 19:23:00,61.6,57.1,29.91,NW,321,9.0,15.0,85,0.00,,,0.06,WUHU216DAVISVP2,2013-05-11 00:23:00,
2013-05-10 19:28:00,61.3,56.8,29.92,NNW,337,7.0,14.0,85,0.00,,,0.06,WUHU216DAVISVP2,2013-05-11 00:28:00,
2013-05-10 19:33:00,61.1,56.9,29.92,NNW,332,14.0,17.0,86,0.00,,,0.06,WUHU216DAVISVP2,2013-05-11 00:33:00,
2013-05-10 19:38:00,60.9,56.7,29.92,WNW,302,4.0,17.0,86,0.00,,,0.06,WUHU216DAVISVP2,2013-05-11 00:38:00,
2013-05-10 19:43:00,60.8,56.6,29.92,NNW,341,7.0,14.0,86,0.00,,,0.06,WUHU216DAVISVP2,2013-05-11 00:43:00,
2013-05-10 19:48:00,60.7,56.5,29.92,NW,314,6.0,14.0,86,0.00,,,0.06,WUHU216DAVISVP2,2013-05-11 00:48:00,
2013-05-10 19:53:00,60.5,56.3,29.93,NNW,334,11.0,13.0,86,0.00,,,0.06,WUHU216DAVISVP2,2013-05-11 00:53:00,
2013-05-10 19:58:00,60.3,55.8,29.93,ENE,67,6.0,13.0,85,0.00,,,0.06,WUHU216DAVISVP2,2013-05-11 00:58:00,
2013-05-10 20:03:00,60.2,56.0,29.93,NNW,332,3.0,11.0,86,0.00,,,0.06,WUHU216DAVISVP2,2013-05-11 01:03:00,
2013-05-10 20:08:00,60.0,55.5,29.92,NNE,26,8.0,10.0,85,0.00,,,0.06,WUHU216DAVISVP2,2013-05-11 01:08:00,
2013-05-10 20:13:00,59.8,55.3,29.92,NNW,335,8.0,18.0,85,0.00,,,0.06,WUHU216DAVISVP2,2013-05-11 01:13:00,
2013-05-10 20:18:00,59.6,54.8,29.92,NW,326,13.0,18.0,84,0.00,,,0.06,WUHU216DAVISVP2,2013-05-11 01:18:00,
2013-05-10 20:23:00,59.4,54.6,29.92,NW,320,9.0,17.0,84,0.00,,,0.06,WUHU216DAVISVP2,2013-05-11 01:23:00,
2013-05-10 20:28:00,59.3,54.8,29.92,NNW,333,12.0,14.0,85,0.00,,,0.06,WUHU216DAVISVP2,2013-05-11 01:28:00,
2013-05-10 20:33:00,59.3,54.8,29.92,North,354,9.0,14.0,85,0.00,,,0.06,WUHU216DAVISVP2,2013-05-11 01:33:00,
2013-05-10 20:38:00,59.3,55.1,29.93,NW,321,8.0,14.0,86,0.00,,,0.06,WUHU216DAVISVP2,2013-05-11 01:38:00,
2013-05-10 20:43:00,59.2,55.0,29.93,NW,323,8.0,13.0,86,0.00,,,0.06,WUHU216DAVISVP2,2013-05-11 01:43:00,
2013-05-10 20:48:00,59.1,54.9,29.92,NNW,327,10.0,13.0,86,0.00,,,0.06,WUHU216DAVISVP2,2013-05-11 01:48:00,
2013-05-10 20:53:00,59.1,54.6,29.93,NNW,331,12.0,15.0,85,0.00,,,0.06,WUHU216DAVISVP2,2013-05-11 01:53:00,
2013-05-10 20:58:00,58.9,54.1,29.93,NNW,333,14.0,16.0,84,0.00,,,0.06,WUHU216DAVISVP2,2013-05-11 01:58:00,
2013-05-10 21:03:00,58.9,54.1,29.93,WNW,293,12.0,16.0,84,0.00,,,0.06,WUHU216DAVISVP2,2013-05-11 02:03:00,
2013-05-10 21:08:00,58.8,54.0,29.94,NNW,333,11.0,14.0,84,0.00,,,0.06,WUHU216DAVISVP2,2013-05-11 02:08:00,
2013-05-10 21:13:00,58.7,53.9,29.94,NNW,337,8.0,15.0,84,0.00,,,0.06,WUHU216DAVISVP2,2013-05-11 02:13:00,
2013-05-10 21:18:00,58.7,53.9,29.94,North,11,11.0,15.0,84,0.00,,,0.06,WUHU216DAVISVP2,2013-05-11 02:18:00,
2013-05-10 21:23:00,58.6,53.8,29.95,NW,319,9.0,14.0,84,0.00,,,0.06,WUHU216DAVISVP2,2013-05-11 02:23:00,
2013-05-10 21:28:00,58.6,53.8,29.95,ENE,72,4.0,12.0,84,0.00,,,0.06,WUHU216DAVISVP2,2013-05-11 02:28:00,
2013-05-10 21:33:00,58.6,53.8,29.95,NNW,330,6.0,12.0,84,0.00,,,0.06,WUHU216DAVISVP2,2013-05-11 02:33:00,
2013-05-10 21:38:00,58.6,53.8,29.95,NW,323,9.0,11.0,84,0.00,,,0.06,WUHU216DAVISVP2,2013-05-11 02:38:00,
2013-05-10 21:43:00,58.5,53.7,29.95,NNW,330,6.0,11.0,84,0.00,,,0.06,WUHU216DAVISVP2,2013-05-11 02:43:00,
2013-05-10 21:48:00,58.5,53.7,29.95,NW,323,6.0,11.0,84,0.00,,,0.06,WUHU216DAVISVP2,2013-05-11 02:48:00,
2013-05-10 21:53:00,58.5,54.0,29.96,NNW,328,4.0,11.0,85,0.00,,,0.06,WUHU216DAVISVP2,2013-05-11 02:53:00,
2013-05-10 21:58:00,58.4,53.6,29.96,NW,314,5.0,10.0,84,0.00,,,0.06,WUHU216DAVISVP2,2013-05-11 02:58:00,
2013-05-10 22:03:00,58.4,53.9,29.96,NW,314,6.0,10.0,85,0.00,,,0.06,WUHU216DAVISVP2,2013-05-11 03:03:00,
2013-05-10 22:08:00,58.4,53.9,29.96,NW,321,2.0,9.0,85,0.00,,,0.06,WUHU216DAVISVP2,2013-05-11 03:08:00,
2013-05-10 22:13:00,58.3,53.5,29.96,NNW,339,6.0,7.0,84,0.00,,,0.06,WUHU216DAVISVP2,2013-05-11 03:13:00,
2013-05-10 22:18:00,58.2,53.4,29.96,WNW,283,3.0,10.0,84,0.00,,,0.06,WUHU216DAVISVP2,2013-05-11 03:18:00,
2013-05-10 22:23:00,58.0,53.2,29.96,NNW,342,4.0,10.0,84,0.00,,,0.06,WUHU216DAVISVP2,2013-05-11 03:23:00,
2013-05-10 22:28:00,57.9,52.8,29.97,North,357,7.0,11.0,83,0.00,,,0.06,WUHU216DAVISVP2,2013-05-11 03:28:00,
2013-05-10 22:33:00,57.7,52.6,29.97,NE,41,6.0,11.0,83,0.00,,,0.06,WUHU216DAVISVP2,2013-05-11 03:33:00,
2013-05-10 22:38:00,57.6,52.5,29.97,NNW,330,5.0,11.0,83,0.00,,,0.06,WUHU216DAVISVP2,2013-05-11 03:38:00,
2013-05-10 22:43:00,57.5,52.7,29.98,NNW,332,4.0,11.0,84,0.00,,,0.06,WUHU216DAVISVP2,2013-05-11 03:43:00,
2013-05-10 22:48:00,57.5,52.7,29.98,NNW,330,3.0,10.0,84,0.00,,,0.06,WUHU216DAVISVP2,2013-05-11 03:48:00,
2013-05-10 22:53:00,57.4,52.3,29.98,NW,322,6.0,11.0,83,0.00,,,0.06,WUHU216DAVISVP2,2013-05-11 03:53:00,
2013-05-10 22:58:00,57.3,51.9,29.98,NW,324,5.0,11.0,82,0.00,,,0.06,WUHU216DAVISVP2,2013-05-11 03:58:00,
2013-05-10 23:01:00,57.3,52.5,29.98,NNW,329,4.0,10.0,84,0.00,,,0.06,WUHU216DAVISVP2,2013-05-11 04:01:00,
2013-05-10 23:06:00,57.2,51.8,29.98,NNW,335,4.0,10.0,82,0.00,,,0.06,WUHU216DAVISVP2,2013-05-11 04:06:00,
2013-05-10 23:11:00,57.2,51.8,29.98,WNW,302,2.0,7.0,82,0.00,,,0.06,WUHU216DAVISVP2,2013-05-11 04:11:00,
2013-05-10 23:16:00,57.1,51.7,29.98,NW,312,6.0,7.0,82,0.00,,,0.06,WUHU216DAVISVP2,2013-05-11 04:16:00,
2013-05-10 23:21:00,57.1,52.0,29.98,NNE,30,8.0,9.0,83,0.00,,,0.06,WUHU216DAVISVP2,2013-05-11 04:21:00,
2013-05-10 23:26:00,57.0,51.9,29.98,WNW,300,4.0,9.0,83,0.00,,,0.06,WUHU216DAVISVP2,2013-05-11 04:26:00,
2013-05-10 23:31:00,57.0,51.9,29.98,NNW,333,4.0,7.0,83,0.00,,,0.06,WUHU216DAVISVP2,2013-05-11 04:31:00,
2013-05-10 23:36:00,56.9,51.8,29.98,NNW,332,5.0,7.0,83,0.00,,,0.06,WUHU216DAVISVP2,2013-05-11 04:36:00,
2013-05-10 23:41:00,56.9,51.8,29.99,NW,321,5.0,7.0,83,0.00,,,0.06,WUHU216DAVISVP2,2013-05-11 04:41:00,
2013-05-10 23:46:00,56.8,52.0,29.99,NNW,341,3.0,8.0,84,0.00,,,0.06,WUHU216DAVISVP2,2013-05-11 04:46:00,
2013-05-10 23:51:00,56.8,51.7,29.99,NW,315,5.0,8.0,83,0.00,,,0.06,WUHU216DAVISVP2,2013-05-11 04:51:00,
2013-05-10 23:56:00,56.7,51.9,29.99,NNW,331,5.0,8.0,84,0.00,,,0.06,WUHU216DAVISVP2,2013-05-11 04:56:00,